User: anonymous   Login
Location: Fort Wayne
(41.1310°N, 85.1290°W)
Time: 22:41:48
(UTC-04:00)
Language:

Cosmos 2219 Rocket - Orbit

View from above orbital plane
View from above orbital plane
View from above satellite
View from above satellite

Ground track
Ground track

The orbit data is extracted from the following two-line orbital elements,

1 22220U 92076B   16236.74473175 +.00000237 +00000-0 +14323-3 0  9996
2 22220 071.0020 325.3434 0012867 356.3260 172.2298 14.16401991228327
Epoch (UTC): 23 August 2016 17:52:24
Eccentricity: 0.0012867
inclination: 71.0020°
perigee height: 828 km
apogee height: 847 km
right ascension of ascending node: 325.3434°
argument of perigee: 356.3260°
revolutions per day: 14.16401991
mean anomaly at epoch: 172.2298°
orbit number at epoch: 22832

The dashed part of the orbit path shows where the satellite is in the earth's shadow,  

DLR